Location: Marse
(42.1502°N, 110.9866°W)
Time: 19:57:22
(UTC+00:00)

QB50P2 - Pass Details

Date: 05 July 2022
Orbit: 590 x 605 km, 97.9° (Epoch: 11 August)

Event Time Altitude Azimuth Distance (km) Brightness Sun altitude
Rises 08:51:17 0° 12° (NNE) 2,862 ? -22.3°
Reaches altitude 10° 08:53:28 10° 12° (NNE) 1,957 ? -22.2°
Maximum altitude 08:57:43 87° 283° (WNW) 611 ? -21.9°
Enters shadow 08:58:14 69° 201° (SSW) 651 ? -21.9°
